Regional Weather Roundup
Issued by NWS Albany, NY

Home | Current Version | Previous Version | Text Only | Print | Product List | Glossary On
Versions: 1 2 3 4 5 6 7 8 9 10 11 12 13 14 15 16 17 18 19 20 21 22 23 24 25 26 27
000
ASUS41 KALY 250610
RWRALY

NEW YORK STATE HOURLY WEATHER ROUNDUP
NATIONAL WEATHER SERVICE ALBANY NY
200 AM EDT THU MAY 25 2017

NOTE: "FAIR" INDICATES FEW OR NO CLOUDS BELOW 12,000 FEET WITH NO
SIGNIFICANT WEATHER AND/OR NO OBSTRUCTIONS TO VISIBILITY.

NYZ032-033-038>043-046>054-057>066-NYZ062>081-082-084-250700-
EAST


CITY           SKY/WX    TMP DP  RH WIND       PRES   REMARKS
ALBANY         CLOUDY    61  48  62 SE6       29.81F
GLENS FALLS    NOT AVBL
POUGHKEEPSIE   CLOUDY    56  49  77 CALM      29.81S
NEWBURGH       PTCLDY    57  52  82 SE7       29.82F
MONTGOMERY     CLOUDY    57  50  77 SE5       29.80F
WHITE PLAINS   CLOUDY    56  51  84 E7        29.79F
ISLIP          CLOUDY    57  52  83 E14G22    29.79F
NEW YORK CITY  CLOUDY    59  51  75 E14       29.79F
CENTRAL PARK   CLOUDY    59  51  75 E7        29.82F
$$

NYZ005>009-017-018-044>046-055-056-250700-
CENTRAL


CITY           SKY/WX    TMP DP  RH WIND       PRES   REMARKS
FULTON         CLOUDY    63  50  62 VRB3      29.70F
SYRACUSE       CLOUDY    62  49  62 E9        29.70S
ROME           CLOUDY    61  49  64 E12       29.74F
ELMIRA         LGT RAIN  62  49  62 SE9       29.67F
BINGHAMTON     CLOUDY    55  47  74 SE13      29.71F
MONTICELLO     CLOUDY    54  48  82 E9        29.80F
$$

NYZ026>034-041>043-087-250700-
NORTH


CITY           SKY/WX    TMP DP  RH WIND       PRES   REMARKS
WATERTOWN      MOCLDY    63  50  62 E5        29.71F
FORT DRUM      NOT AVBL
OGDENSBURG     FAIR      62  54  75 CALM      29.76S
MASSENA        CLOUDY    59  53  80 CALM      29.78S
SARANAC LAKE   PTCLDY    45  44  97 CALM      29.81F
PLATTSBURGH    CLOUDY    53  51  93 CALM      29.81S
$$

NYZ001>004-010>016-019>021-085-250700-
WEST


CITY           SKY/WX    TMP DP  RH WIND       PRES   REMARKS
NIAGARA FALLS  LGT RAIN  61  54  77 SE7       29.60F
BUFFALO        CLOUDY    59  54  83 E8        29.60F
DUNKIRK        CLOUDY    61  54  77 CALM      29.58S
JAMESTOWN      CLOUDY    57  48  72 SE13G20   29.59F
WELLSVILLE     LGT RAIN  55  50  83 SE14G22   29.65F
ROCHESTER      CLOUDY    66  48  52 SE12      29.65F
PENN YAN       LGT RAIN  62  46  55 VRB6      29.68F
$$

             KEY
       WCI = WIND CHILL INDEX
       VSB = VISIBILITY
       HX  = HEAT INDEX
$$




USA.gov is the U.S. government's official web portal to all federal, state and local government web resources and services.